JD,Date,Time,Lat,Long,"xCO2,w","xCO2,a",EqTemp,Pressure_Equi,SST(TSG),Sal(TSG),"fCO2w,eq","fCO2w,in situ",fCO2a,dfCO2
162.011,2006-11-01,0:16:24,54.033,-166.155,332.75,375.31,6.5,1015.83,5.83,32.32,329.26,319.66,371.29,-51.63
162.014,2006-11-01,0:20:50,54.03,-166.126,332.45,375.31,6.43,1015.73,5.8,32.33,328.93,319.89,371.29,-51.4
162.018,2006-11-01,0:25:20,54.027,-166.1,335.98,375.31,6.41,1015.63,5.61,32.36,332.42,320.88,371.29,-50.41
162.021,2006-11-01,0:29:50,54.025,-166.074,340.59,375.31,6.34,1015.65,5.74,32.34,336.97,328.19,371.29,-43.1
162.032,2006-11-01,0:46:21,54.002,-165.985,337.35,375.31,6.31,1015.44,5.76,32.32,333.69,325.66,371.29,-45.63
162.035,2006-11-01,0:50:50,53.996,-165.961,339.23,375.31,6.29,1015.33,5.68,32.33,335.53,326.62,371.29,-44.67
162.038,2006-11-01,0:55:20,53.989,-165.937,340.79,375.31,6.24,1015.46,5.8,32.33,337.09,330.68,371.29,-40.61
162.042,2006-11-01,0:59:50,53.984,-165.914,340.08,375.31,6.25,1015.34,5.71,32.33,336.37,328.54,371.29,-42.75
162.053,2006-11-01,1:16:24,53.946,-165.861,340.93,375.26,6.23,1015.28,5.68,32.34,337.2,329.1,371.25,-42.15
162.056,2006-11-01,1:20:50,53.929,-165.861,340.44,375.26,6.21,1015.28,5.71,32.31,336.71,329.33,371.25,-41.92
162.059,2006-11-01,1:25:20,53.912,-165.862,341.67,375.26,6.25,1015.57,5.78,32.3,338,331.14,371.25,-40.11
162.062,2006-11-01,1:29:50,53.896,-165.866,342.55,375.26,6.26,1015.47,5.7,32.32,338.85,330.6,371.25,-40.65
162.074,2006-11-01,1:46:21,53.834,-165.881,342.75,375.26,6.25,1015.35,5.79,32.29,339,332.18,371.25,-39.06
162.077,2006-11-01,1:50:50,53.819,-165.892,341.83,375.26,6.61,1015.63,6.3,32.27,338.08,333.57,371.25,-37.68
162.08,2006-11-01,1:55:20,53.804,-165.908,326.9,375.26,6.56,1015.37,6.22,32.24,323.24,318.39,371.25,-52.86
162.083,2006-11-01,1:59:50,53.791,-165.923,327.2,375.26,7.31,1015.53,7.24,32.21,323.4,322.46,371.25,-48.79
162.095,2006-11-01,2:16:24,53.741,-165.985,335.84,375.4,6.93,1015.62,6.4,32.27,332.13,324.57,370.9,-46.33
162.098,2006-11-01,2:20:50,53.726,-166.001,335.31,375.4,6.59,1015.52,5.93,32.27,331.67,322.25,370.9,-48.64
162.101,2006-11-01,2:25:20,53.712,-166.016,335.58,375.4,6.55,1015.37,5.99,32.25,331.87,323.84,370.9,-47.06
162.104,2006-11-01,2:29:50,53.699,-166.031,333.67,375.4,6.52,1015.43,6.67,32.2,329.87,332.07,370.9,-38.83
162.116,2006-11-01,2:46:21,53.647,-166.086,258.4,375.4,8.01,1015.58,7.64,31.97,255.35,251.22,370.9,-119.68
162.119,2006-11-01,2:50:50,53.634,-166.101,268.94,375.4,8.09,1015.22,7.65,32.05,265.66,260.61,370.9,-110.29
162.122,2006-11-01,2:55:20,53.619,-166.117,224.51,375.4,7.87,1015.28,7.64,32.03,221.79,219.53,370.9,-151.37
162.125,2006-11-01,2:59:50,53.605,-166.13,206.64,375.4,8.26,1015.33,7.89,31.93,204.11,200.78,370.9,-170.11
162.136,2006-11-01,3:16:24,53.553,-166.188,267.71,375.69,7.97,1015.03,7.68,31.98,264.39,261.1,371.03,-109.93
162.139,2006-11-01,3:20:50,53.539,-166.205,285.48,375.69,8.09,1015.27,7.51,31.98,282.03,275.01,371.03,-96.02
162.143,2006-11-01,3:25:20,53.525,-166.22,287.88,375.69,7.88,1015.38,7.83,31.97,284.38,283.76,371.03,-87.28
162.146,2006-11-01,3:29:50,53.511,-166.236,247.75,375.69,8.32,1015.24,7.8,31.95,244.71,239.22,371.03,-131.81
162.157,2006-11-01,3:46:21,53.458,-166.294,184.39,375.69,8.37,1015.35,7.89,31.89,182.13,178.29,371.03,-192.74
162.16,2006-11-01,3:50:50,53.444,-166.31,179.56,375.69,8.37,1015.23,8.07,31.9,177.32,174.99,371.03,-196.04
162.163,2006-11-01,3:55:20,53.429,-166.327,179.76,375.69,8.39,1015.28,8.31,31.92,177.51,176.91,371.03,-194.13
162.167,2006-11-01,3:59:50,53.415,-166.342,183.74,375.69,8.65,1015.3,8.16,31.94,181.45,177.51,371.03,-193.52
162.178,2006-11-01,4:16:24,53.36,-166.404,181.94,375.44,8.14,1015.32,8.18,31.91,179.68,179.99,370.74,-190.75
162.181,2006-11-01,4:20:50,53.345,-166.42,183.94,375.44,8.32,1015.15,8,31.93,181.64,179.03,370.74,-191.71
162.184,2006-11-01,4:25:20,53.339,-166.428,185.64,375.44,8.56,1015.39,8.33,31.94,183.33,181.49,370.74,-189.25
162.187,2006-11-01,4:29:50,53.334,-166.433,186.31,375.44,8.68,1015.1,8.33,31.95,183.93,181.06,370.74,-189.68
162.199,2006-11-01,4:46:21,53.277,-166.479,183.24,375.44,8.37,1015.05,8.23,31.93,180.91,179.81,370.74,-190.93
162.202,2006-11-01,4:50:50,53.261,-166.49,183.9,375.44,8.58,1015.29,8.12,31.93,181.62,177.93,370.74,-192.81
162.205,2006-11-01,4:55:20,53.244,-166.502,185.1,375.44,9.18,1015.15,8.65,31.91,182.71,178.48,370.74,-192.26
162.208,2006-11-01,4:59:50,53.229,-166.513,186.84,375.44,8.98,1015.28,8.4,31.94,184.48,179.76,370.74,-190.98
162.22,2006-11-01,5:16:24,53.168,-166.554,190.2,375.45,8.87,1015.23,8.64,32.17,187.76,185.87,370.71,-184.85
162.223,2006-11-01,5:20:50,53.15,-166.563,191,375.45,9,1015.41,8.83,32.18,188.56,187.17,370.71,-183.54
162.226,2006-11-01,5:25:20,53.137,-166.569,193.16,375.45,9.13,1015.31,8.42,32.24,190.72,184.85,370.71,-185.86
162.229,2006-11-01,5:29:50,53.132,-166.573,192.68,375.45,8.85,1015.38,8.29,32.25,190.28,185.65,370.71,-185.06
162.241,2006-11-01,5:46:21,53.093,-166.601,194.11,375.45,9.06,1015.23,8.69,32.29,191.62,188.5,370.71,-182.21
162.244,2006-11-01,5:50:50,53.077,-166.613,195.24,375.45,9.19,1015.44,8.63,32.27,192.77,188.04,370.71,-182.67
162.247,2006-11-01,5:55:20,53.06,-166.626,193.47,375.45,9,1015.55,8.47,32.25,191.07,186.62,370.71,-184.09
162.25,2006-11-01,5:59:50,53.043,-166.637,191.53,375.45,9.07,1015.58,8.5,32.26,189.15,184.44,370.71,-186.27
162.261,2006-11-01,6:16:24,52.981,-166.678,194.28,375.34,9.08,1015.67,8.45,32.27,191.9,186.62,370.84,-184.21
162.264,2006-11-01,6:20:50,52.964,-166.689,194.48,375.34,8.87,1016.02,8.18,32.15,192.19,186.42,370.84,-184.42
162.268,2006-11-01,6:25:20,52.948,-166.7,191.98,375.34,8.66,1015.98,8.07,32.12,189.73,184.8,370.84,-186.04
162.271,2006-11-01,6:29:50,52.931,-166.71,190.18,375.34,8.56,1015.8,8.24,32.14,187.9,185.28,370.84,-185.56
162.282,2006-11-01,6:46:21,52.87,-166.752,186.88,375.34,8.52,1015.98,8.91,32.24,184.59,187.85,370.84,-182.98
162.285,2006-11-01,6:50:50,52.855,-166.764,187.03,375.34,9.08,1015.98,8.63,32.29,184.77,181.12,370.84,-189.72
162.288,2006-11-01,6:55:20,52.839,-166.776,192.06,375.34,8.98,1016.11,8.52,32.32,189.78,185.91,370.84,-184.92
162.292,2006-11-01,6:59:50,52.824,-166.788,199.84,375.34,8.93,1015.98,8.46,32.32,197.45,193.35,370.84,-177.48
162.303,2006-11-01,7:16:24,52.763,-166.83,197.69,375.66,8.91,1016.13,8.42,32.51,195.35,191.13,371.29,-180.16
162.306,2006-11-01,7:20:50,52.746,-166.842,195.66,375.66,8.83,1016.02,8.4,32.35,193.34,189.66,371.29,-181.63
162.309,2006-11-01,7:25:20,52.731,-166.852,196.24,375.66,8.93,1016.23,8.85,32.29,193.89,193.2,371.29,-178.08
162.312,2006-11-01,7:29:50,52.715,-166.863,199.65,375.66,9.09,1016,9.01,32.41,197.19,196.54,371.29,-174.75
162.324,2006-11-01,7:46:21,52.655,-166.901,221.14,375.66,8.66,1016.3,8.22,32.59,218.6,214.44,371.29,-156.85
162.327,2006-11-01,7:50:50,52.639,-166.911,233.3,375.66,8.68,1016.18,8.14,32.61,230.6,225.18,371.29,-146.11
162.33,2006-11-01,7:55:20,52.622,-166.921,242.86,375.66,8.49,1016.21,8.16,32.69,240.06,236.64,371.29,-134.65
162.333,2006-11-01,7:59:50,52.607,-166.932,270.48,375.66,8.38,1016.01,7.81,32.71,267.37,260.77,371.29,-110.52
162.345,2006-11-01,8:16:24,52.547,-166.974,327.46,375.53,8.65,1016.32,8.51,32.73,323.64,321.71,371.37,-49.66
162.348,2006-11-01,8:20:50,52.531,-166.985,321.15,375.53,8.53,1016.2,7.96,32.73,317.48,309.65,371.37,-61.72
162.351,2006-11-01,8:25:20,52.516,-166.995,312.22,375.53,8.38,1016.31,7.95,32.72,308.69,303,371.37,-68.38
162.354,2006-11-01,8:29:50,52.501,-167.006,309.8,375.53,8.44,1016.36,7.68,32.69,306.36,296.44,371.37,-74.94
162.366,2006-11-01,8:46:21,52.442,-167.047,337.66,375.53,8.13,1016.54,7.5,32.67,334.02,325.04,371.37,-46.33
162.369,2006-11-01,8:50:50,52.427,-167.057,346.11,375.53,7.95,1016.25,7.51,32.68,342.28,335.78,371.37,-35.59
162.372,2006-11-01,8:55:20,52.411,-167.069,356.64,375.53,7.85,1016.43,7.37,32.66,352.78,345.46,371.37,-25.91
162.375,2006-11-01,8:59:50,52.396,-167.079,360.19,375.53,7.92,1016.32,7.4,32.69,356.24,348.36,371.37,-23.02
162.386,2006-11-01,9:16:24,52.338,-167.12,365.51,375.51,7.89,1016.44,7.37,32.72,361.56,353.53,371.39,-17.86
162.389,2006-11-01,9:20:50,52.323,-167.131,367.13,375.51,7.95,1016.28,7.71,32.72,363.02,359.31,371.39,-12.09
162.393,2006-11-01,9:25:20,52.308,-167.14,372.15,375.51,8.01,1016.54,7.51,32.7,368.13,360.31,371.39,-11.08
162.396,2006-11-01,9:29:50,52.293,-167.149,373.82,375.51,7.79,1016.29,7.41,32.74,369.72,363.71,371.39,-7.68
162.407,2006-11-01,9:46:21,52.237,-167.187,371.31,375.51,7.75,1016.32,7.21,32.73,367.28,358.7,371.39,-12.69
162.41,2006-11-01,9:50:50,52.222,-167.197,367.36,375.51,7.78,1016.19,7.23,32.73,363.33,354.78,371.39,-16.62
162.413,2006-11-01,9:55:20,52.207,-167.207,361.19,375.51,7.76,1016.41,7.23,32.72,357.31,349.16,371.39,-22.23
162.417,2006-11-01,9:59:50,52.193,-167.217,355.19,375.51,7.73,1016.34,7.31,32.71,351.32,344.94,371.39,-26.45
162.428,2006-11-01,10:16:24,52.137,-167.256,300.46,375.38,7.55,1016.34,6.92,32.73,297.26,289.16,371.41,-82.25
162.431,2006-11-01,10:20:50,52.121,-167.267,286.75,375.38,7.43,1016.28,7.09,32.73,283.65,279.45,371.41,-91.96
162.434,2006-11-01,10:25:20,52.107,-167.276,269.18,375.38,7.49,1016.32,6.85,32.77,266.33,258.94,371.41,-112.48
162.437,2006-11-01,10:29:50,52.092,-167.286,254.67,375.38,7.45,1016.36,6.95,32.76,251.96,246.49,371.41,-124.92
162.449,2006-11-01,10:46:21,52.036,-167.323,255.31,375.38,7.51,1016.38,7.06,32.73,252.58,247.57,371.41,-123.84
162.452,2006-11-01,10:50:50,52.02,-167.334,261.91,375.38,7.52,1016.41,6.93,32.71,259.14,252.47,371.41,-118.94
162.455,2006-11-01,10:55:20,52.005,-167.343,272.29,375.38,7.47,1016.29,6.99,32.72,269.37,263.78,371.41,-107.63
162.458,2006-11-01,10:59:50,51.99,-167.352,274.26,375.38,7.46,1016.3,6.86,32.73,271.34,264.26,371.41,-107.15
162.47,2006-11-01,11:16:24,51.934,-167.39,295.56,375.13,7.37,1016.32,6.85,32.65,292.42,285.87,371.17,-85.3
162.473,2006-11-01,11:20:50,51.919,-167.402,304.74,375.13,7.3,1016.22,6.73,32.64,301.5,294.05,371.17,-77.12
162.476,2006-11-01,11:25:20,51.904,-167.412,319.6,375.13,7.23,1016.31,6.72,32.64,316.23,309.28,371.17,-61.89
162.479,2006-11-01,11:29:50,51.89,-167.422,325.85,375.13,7.22,1016.28,6.7,32.64,322.4,315.21,371.17,-55.97
162.491,2006-11-01,11:46:21,51.833,-167.462,301.93,375.13,7.06,1016.22,6.56,32.65,298.75,292.2,371.17,-78.97
162.494,2006-11-01,11:50:50,51.818,-167.472,296.54,375.13,7.06,1016.18,6.57,32.65,293.41,287.14,371.17,-84.03
162.497,2006-11-01,11:55:20,51.803,-167.482,293.71,375.13,7.06,1016.12,6.58,32.65,290.58,284.47,371.17,-86.7
162.5,2006-11-01,11:59:50,51.788,-167.492,298.03,375.13,7.07,1016.09,6.61,32.65,294.84,288.89,371.17,-82.28
162.511,2006-11-01,12:16:24,51.733,-167.53,315.19,374.98,7.09,1016.25,6.54,32.66,311.88,304.46,371.12,-66.66
162.514,2006-11-01,12:20:50,51.717,-167.541,315.63,374.98,7.04,1016.29,6.52,32.67,312.33,305.26,371.12,-65.86
162.518,2006-11-01,12:25:20,51.703,-167.551,311.37,374.98,7.05,1016.39,6.67,32.69,308.12,303.05,371.12,-68.07
162.521,2006-11-01,12:29:50,51.688,-167.56,297.21,374.98,7.06,1016.46,6.48,32.73,294.16,286.75,371.12,-84.37
162.532,2006-11-01,12:46:21,51.633,-167.597,253.17,374.98,6.91,1016.42,6.46,32.71,250.57,245.58,371.12,-125.54
162.535,2006-11-01,12:50:50,51.617,-167.607,254.44,374.98,6.97,1016.57,6.5,32.71,251.86,246.62,371.12,-124.51
162.538,2006-11-01,12:55:20,51.602,-167.617,257.29,374.98,6.97,1016.32,6.45,32.71,254.62,248.87,371.12,-122.26
162.542,2006-11-01,12:59:50,51.587,-167.627,260.6,374.98,6.86,1016.35,6.28,32.72,257.93,251.4,371.12,-119.72
162.553,2006-11-01,13:16:24,51.532,-167.665,237.43,374.8,6.86,1016.32,6.38,32.8,234.97,230.03,370.93,-140.9
162.556,2006-11-01,13:20:50,51.517,-167.675,237.52,374.8,6.87,1016.38,6.36,32.8,235.08,229.78,370.93,-141.15
162.559,2006-11-01,13:25:20,51.503,-167.685,236.93,374.8,6.89,1016.46,6.34,32.8,234.52,228.81,370.93,-142.12
162.562,2006-11-01,13:29:50,51.487,-167.696,237.48,374.8,6.82,1016.21,6.26,32.8,235.02,229.26,370.93,-141.67
162.574,2006-11-01,13:46:21,51.434,-167.733,252.9,374.8,6.6,1016.15,6.09,32.86,250.28,244.64,370.93,-126.29
162.577,2006-11-01,13:50:50,51.418,-167.743,259.57,374.8,6.59,1016.23,6.06,32.87,256.91,250.94,370.93,-119.99
162.58,2006-11-01,13:55:20,51.404,-167.753,264.92,374.8,6.56,1016.22,6.07,32.88,262.2,256.51,370.93,-114.42
162.583,2006-11-01,13:59:50,51.388,-167.764,271.52,374.8,6.6,1016.33,6.05,32.88,268.77,262.29,370.93,-108.64
162.595,2006-11-01,14:16:24,51.332,-167.8,306.31,374.76,6.75,1016.15,6.3,32.93,303.11,297.12,370.9,-73.78
162.598,2006-11-01,14:20:49,51.316,-167.81,317.99,374.76,6.78,1016.22,6.31,32.92,314.68,308.24,370.9,-62.66
162.601,2006-11-01,14:25:20,51.301,-167.82,324.66,374.76,6.81,1016.12,6.32,32.91,321.25,314.43,370.9,-56.46
162.604,2006-11-01,14:29:50,51.285,-167.831,328.03,374.76,6.8,1016.16,6.3,32.9,324.6,317.52,370.9,-53.38
162.616,2006-11-01,14:46:21,51.23,-167.868,330.52,374.76,6.85,1016.41,6.37,32.89,327.14,320.35,370.9,-50.54
162.619,2006-11-01,14:50:50,51.214,-167.878,329.29,374.76,6.86,1016.53,6.37,32.89,325.96,319.02,370.9,-51.88
162.622,2006-11-01,14:55:20,51.199,-167.888,328.29,374.76,6.86,1016.41,6.37,32.89,324.93,318.01,370.9,-52.89
162.625,2006-11-01,14:59:50,51.183,-167.899,327.56,374.76,6.85,1016.54,6.36,32.89,324.26,317.29,370.9,-53.61
162.636,2006-11-01,15:16:24,51.126,-167.936,325.89,374.6,6.81,1016.62,6.33,32.9,322.63,315.84,370.87,-55.03
162.639,2006-11-01,15:20:50,51.109,-167.947,324.53,374.6,6.8,1016.57,6.33,32.89,321.27,314.7,370.87,-56.17
162.643,2006-11-01,15:25:20,51.094,-167.957,319.02,374.6,6.83,1016.6,6.36,32.89,315.81,309.4,370.87,-61.47
162.646,2006-11-01,15:29:50,51.078,-167.968,311.79,374.6,6.84,1016.65,6.34,32.89,308.67,301.99,370.87,-68.88
162.657,2006-11-01,15:46:21,51.021,-168.005,309,374.6,6.72,1016.77,6.16,32.89,305.98,298.51,370.87,-72.36
162.66,2006-11-01,15:50:50,51.005,-168.016,317.81,374.6,6.67,1016.71,6.19,32.89,314.68,308.08,370.87,-62.79
162.663,2006-11-01,15:55:20,50.99,-168.026,321.09,374.6,6.69,1016.72,6.21,32.89,317.93,311.22,370.87,-59.65
162.667,2006-11-01,15:59:50,50.974,-168.036,321.03,374.6,6.73,1016.77,6.27,32.89,317.87,311.5,370.87,-59.37
162.678,2006-11-01,16:16:24,50.917,-168.075,332.3,374.74,6.77,1016.85,6.21,32.89,329.07,321.02,371.16,-50.14
162.681,2006-11-01,16:20:50,50.901,-168.086,328.92,374.74,6.73,1016.94,6.18,32.89,325.76,317.94,371.16,-53.22
162.684,2006-11-01,16:25:20,50.887,-168.096,329.17,374.74,6.67,1016.93,6.18,32.88,326,319.12,371.16,-52.04
162.687,2006-11-01,16:29:50,50.871,-168.108,327.02,374.74,6.68,1016.89,6.21,32.89,323.86,317.23,371.16,-53.94
162.699,2006-11-01,16:46:21,50.815,-168.146,315.11,374.74,6.65,1016.92,6.14,32.89,312.09,305.22,371.16,-65.94
162.702,2006-11-01,16:50:50,50.799,-168.157,315.55,374.74,6.67,1016.9,6.16,32.89,312.51,305.58,371.16,-65.59
162.705,2006-11-01,16:55:20,50.784,-168.167,318.79,374.74,6.68,1016.99,6.16,32.89,315.75,308.63,371.16,-62.54
162.708,2006-11-01,16:59:50,50.767,-168.178,318.46,374.74,6.66,1016.84,6.16,32.88,315.37,308.53,371.16,-62.64
162.72,2006-11-01,17:16:25,50.71,-168.216,326.34,374.48,6.65,1017.2,6.19,32.88,323.28,316.76,371,-54.24
162.723,2006-11-01,17:20:50,50.702,-168.222,-999.99,374.48,6.67,1017.12,6.19,32.88,-999.99,-999.99,371,-999.99
162.726,2006-11-01,17:25:20,50.694,-168.227,309.33,374.48,6.68,1017.04,6.18,32.88,306.39,299.72,371,-71.28
162.729,2006-11-01,17:29:50,50.663,-168.247,332.84,374.48,6.61,1017.01,6.1,32.88,329.68,322.34,371,-48.66
162.741,2006-11-01,17:46:21,50.607,-168.283,347.78,374.48,6.62,1017.28,6.11,32.87,344.57,336.96,371,-34.05
162.744,2006-11-01,17:50:50,50.591,-168.292,348.17,374.48,6.61,1017.35,6.1,32.87,344.98,337.28,371,-33.72
162.747,2006-11-01,17:55:20,50.577,-168.302,353.3,374.48,6.59,1017.34,6.1,32.88,350.05,342.64,371,-28.36
162.75,2006-11-01,17:59:50,50.561,-168.314,359.14,374.48,6.63,1017.31,6.15,32.87,355.82,348.46,371,-22.54
162.761,2006-11-01,18:16:24,50.515,-168.377,337.31,374.24,6.61,1017.42,6.05,32.87,334.25,326.19,370.93,-44.74
162.764,2006-11-01,18:20:50,50.502,-168.395,345.8,374.24,6.54,1017.31,5.99,32.88,342.64,334.45,370.93,-36.48
162.768,2006-11-01,18:25:20,50.486,-168.401,355.9,374.24,6.47,1017.51,5.93,32.88,352.73,344.45,370.93,-26.47
162.771,2006-11-01,18:29:50,50.469,-168.409,365.62,374.24,6.42,1017.55,5.92,32.87,362.38,354.47,370.93,-16.45
162.782,2006-11-01,18:46:21,50.411,-168.436,387.3,374.24,6.44,1017.65,5.9,32.88,383.9,374.99,370.93,4.07
162.785,2006-11-01,18:50:50,50.395,-168.444,388.2,374.24,6.4,1017.58,5.9,32.88,384.77,376.38,370.93,5.46
162.788,2006-11-01,18:55:20,50.379,-168.451,388.58,374.24,6.43,1017.64,5.93,32.88,385.17,376.9,370.93,5.98
162.792,2006-11-01,18:59:50,50.363,-168.458,386.29,374.24,6.46,1017.62,5.92,32.88,382.89,374.02,370.93,3.09
162.803,2006-11-01,19:16:24,50.305,-168.484,378,374.27,6.34,1017.84,5.8,32.88,374.79,366.09,371.09,-5.01
162.806,2006-11-01,19:20:50,50.288,-168.492,381.7,374.27,6.29,1017.9,5.78,32.88,378.47,370.13,371.09,-0.97
162.809,2006-11-01,19:25:20,50.273,-168.499,385,374.27,6.29,1017.77,5.79,32.88,381.7,373.4,371.09,2.3
162.812,2006-11-01,19:29:50,50.257,-168.509,386.81,374.27,6.34,1017.83,5.78,32.88,383.52,374.32,371.09,3.22
162.824,2006-11-01,19:46:21,50.201,-168.547,389.47,374.27,6.27,1017.82,5.77,32.87,386.15,377.74,371.09,6.65
162.827,2006-11-01,19:50:50,50.185,-168.558,389.38,374.27,6.29,1017.79,5.77,32.87,386.05,377.33,371.09,6.24
162.83,2006-11-01,19:55:20,50.171,-168.568,389.62,374.27,6.26,1017.96,5.76,32.87,386.36,377.99,371.09,6.9
162.833,2006-11-01,19:59:50,50.156,-168.578,390.33,374.27,6.25,1017.89,5.75,32.87,387.03,378.59,371.09,7.49
162.845,2006-11-01,20:16:24,50.101,-168.614,391.73,374.31,6.22,1017.86,5.74,32.87,388.42,380.42,371.23,9.19
162.848,2006-11-01,20:20:49,50.085,-168.624,391.6,374.31,6.24,1017.98,5.76,32.87,388.33,380.31,371.23,9.08
162.851,2006-11-01,20:25:20,50.071,-168.632,390.74,374.31,6.29,1017.91,5.77,32.87,387.45,378.81,371.23,7.58
162.854,2006-11-01,20:29:50,50.055,-168.642,388.47,374.31,6.27,1017.96,5.76,32.87,385.22,376.71,371.23,5.48
162.866,2006-11-01,20:46:21,49.999,-168.677,388.25,374.31,6.3,1018.24,5.77,32.86,385.11,376.34,371.23,5.11
162.869,2006-11-01,20:50:50,49.984,-168.687,388.23,374.31,6.28,1018.14,5.77,32.86,385.05,376.6,371.23,5.37
162.872,2006-11-01,20:55:20,49.969,-168.697,388.7,374.31,6.26,1018.14,5.71,32.86,385.53,376.38,371.23,5.15
162.875,2006-11-01,20:59:50,49.953,-168.708,389.52,374.31,6.22,1018.03,5.71,32.87,386.3,377.7,371.23,6.47
162.886,2006-11-01,21:16:24,49.898,-168.745,390.83,374.3,6.2,1018.2,5.68,32.87,387.67,378.93,371.3,7.62
162.889,2006-11-01,21:20:50,49.882,-168.756,388.58,374.3,6.24,1018.28,5.75,32.87,385.45,377.25,371.3,5.95
162.893,2006-11-01,21:25:20,49.867,-168.764,378.35,374.3,6.22,1018.22,5.65,32.87,375.3,366.04,371.3,-5.27
162.896,2006-11-01,21:29:50,49.851,-168.774,377.94,374.3,6.2,1018.32,5.78,32.87,374.91,368.05,371.3,-3.25
162.907,2006-11-01,21:46:21,49.794,-168.809,369.49,374.3,6.28,1018.44,5.78,32.86,366.56,358.58,371.3,-12.73
162.91,2006-11-01,21:50:50,49.778,-168.82,368.81,374.3,6.27,1018.49,5.75,32.86,365.92,357.62,371.3,-13.68
162.913,2006-11-01,21:55:20,49.764,-168.831,367.79,374.3,6.27,1018.55,5.78,32.86,364.92,357.23,371.3,-14.07
162.917,2006-11-01,21:59:50,49.748,-168.842,362.17,374.3,6.29,1018.29,5.79,32.86,359.25,351.48,371.3,-19.82
162.928,2006-11-01,22:16:24,49.692,-168.877,356.85,374.2,6.23,1018.75,5.72,32.87,354.15,346.37,371.33,-24.96
162.931,2006-11-01,22:20:50,49.676,-168.887,358.98,374.2,6.23,1018.79,5.74,32.88,356.27,348.71,371.33,-22.62
162.934,2006-11-01,22:25:20,49.661,-168.896,365.83,374.2,6.26,1018.6,5.76,32.88,362.99,355.19,371.33,-16.14
162.937,2006-11-01,22:29:50,49.645,-168.907,377.97,374.2,6.26,1018.51,5.75,32.87,375.01,366.72,371.33,-4.61
162.949,2006-11-01,22:46:21,49.59,-168.943,388.58,374.2,6.25,1018.73,5.74,32.87,385.62,377.11,371.33,5.77
162.952,2006-11-01,22:50:50,49.574,-168.953,388.36,374.2,6.26,1018.58,5.75,32.86,385.35,376.86,371.33,5.53
162.955,2006-11-01,22:55:20,49.559,-168.963,387.49,374.2,6.24,1018.63,5.72,32.86,384.5,375.85,371.33,4.51
162.958,2006-11-01,22:59:50,49.544,-168.974,386.69,374.2,6.23,1018.74,5.73,32.87,383.76,375.38,371.33,4.05
162.97,2006-11-01,23:16:24,49.489,-169.012,388.4,374.16,6.28,1018.77,5.77,32.87,385.45,376.91,371.34,5.57
162.973,2006-11-01,23:20:49,49.473,-169.022,388.46,374.16,6.28,1018.79,5.79,32.87,385.52,377.3,371.34,5.96
162.976,2006-11-01,23:25:20,49.459,-169.031,388.97,374.16,6.29,1018.68,5.79,32.87,385.99,377.56,371.34,6.22
162.979,2006-11-01,23:29:50,49.443,-169.041,389.23,374.16,6.3,1018.86,5.82,32.87,386.3,378.34,371.34,7
162.991,2006-11-01,23:46:21,49.388,-169.074,390.03,374.16,6.3,1018.86,5.78,32.87,387.1,378.41,371.34,7.07
162.994,2006-11-01,23:50:50,49.372,-169.084,390.52,374.16,6.32,1018.97,5.81,32.87,387.63,379.15,371.34,7.81
162.997,2006-11-01,23:55:20,49.357,-169.093,391.46,374.16,6.38,1018.64,5.85,32.86,388.43,379.56,371.34,8.22
163,2006-11-01,23:59:50,49.342,-169.103,391.55,374.16,6.35,1018.81,5.85,32.86,388.58,380.12,371.34,8.78
163.011,2006-12-01,0:16:24,49.286,-169.138,391.23,374.15,6.32,1018.95,5.77,32.87,388.33,379.13,371.39,7.74
163.014,2006-12-01,0:20:50,49.27,-169.147,389.53,374.15,6.28,1018.98,5.74,32.87,386.67,377.7,371.39,6.31
163.018,2006-12-01,0:25:20,49.256,-169.157,388.63,374.15,6.26,1019.05,5.79,32.86,385.79,377.95,371.39,6.56
163.021,2006-12-01,0:29:50,49.239,-169.168,389,374.15,6.3,1019.03,5.88,32.86,386.12,379.1,371.39,7.71
163.032,2006-12-01,0:46:21,49.185,-169.204,391.81,374.15,6.42,1019.08,5.91,32.88,388.93,380.35,371.39,8.96
163.035,2006-12-01,0:50:51,49.17,-169.214,391.83,374.15,6.46,1019.19,5.95,32.88,388.98,380.44,371.39,9.05
163.038,2006-12-01,0:55:21,49.155,-169.223,391.85,374.15,6.44,1019.01,5.91,32.87,388.94,380.03,371.39,8.64
163.042,2006-12-01,0:59:51,49.139,-169.233,391.44,374.15,6.41,1019.1,5.91,32.87,388.57,380.14,371.39,8.74
163.053,2006-12-01,1:16:24,49.083,-169.267,392.85,374.09,6.41,1019.16,5.94,32.87,389.99,382.04,371.38,10.65
163.056,2006-12-01,1:20:51,49.067,-169.277,393.45,374.09,6.45,1019.21,5.94,32.88,390.61,381.98,371.38,10.59
163.059,2006-12-01,1:25:21,49.052,-169.287,394.1,374.09,6.44,1019.29,5.93,32.87,391.28,382.64,371.38,11.25
163.062,2006-12-01,1:29:50,49.036,-169.297,394.01,374.09,6.43,1019.27,5.89,32.88,391.2,382.15,371.38,10.77
163.074,2006-12-01,1:46:21,48.981,-169.334,393.15,374.09,6.49,1019.33,6.03,32.88,390.33,382.58,371.38,11.2
163.077,2006-12-01,1:50:50,48.965,-169.344,393.88,374.09,6.51,1019.35,5.91,32.9,391.09,380.99,371.38,9.61
163.08,2006-12-01,1:55:20,48.951,-169.354,394.57,374.09,6.48,1019.33,6.08,32.9,391.73,384.89,371.38,13.51
163.083,2006-12-01,1:59:50,48.935,-169.366,395.82,374.09,6.54,1019.52,6.09,32.9,393.05,385.36,371.38,13.98
163.095,2006-12-01,2:16:24,48.89,-169.424,397.28,374.09,6.49,1019.57,6.01,32.9,394.53,386.36,371.53,14.83
163.098,2006-12-01,2:20:51,48.877,-169.441,396.93,374.09,6.49,1019.42,6.06,32.9,394.11,386.71,371.53,15.19
163.101,2006-12-01,2:25:21,48.862,-169.447,397.24,374.09,6.59,1019.45,6.03,32.89,394.43,384.91,371.53,13.38
163.104,2006-12-01,2:29:51,48.845,-169.452,396.89,374.09,6.55,1019.49,6.05,32.89,394.1,385.64,371.53,14.11
163.116,2006-12-01,2:46:21,48.786,-169.469,395.42,374.09,6.51,1019.65,6.03,32.89,392.71,384.55,371.53,13.02
163.119,2006-12-01,2:50:50,48.769,-169.474,394.07,374.09,6.55,1019.76,6.04,32.9,391.4,382.85,371.53,11.32
163.122,2006-12-01,2:55:20,48.753,-169.479,389.53,374.09,6.57,1019.62,6.1,32.9,386.84,378.94,371.53,7.41
163.125,2006-12-01,2:59:50,48.737,-169.489,387.91,374.09,6.61,1019.69,6.07,32.91,385.25,376.27,371.53,4.74
163.136,2006-12-01,3:16:24,48.68,-169.525,395.24,374.06,6.57,1019.68,6.08,32.9,392.53,384.24,371.51,12.74
163.139,2006-12-01,3:20:50,48.664,-169.536,392.36,374.06,6.58,1019.58,6.05,32.9,389.64,380.76,371.51,9.25
163.143,2006-12-01,3:25:20,48.65,-169.545,393.52,374.06,6.56,1019.67,6.08,32.9,390.82,382.71,371.51,11.21